Time,TemperatureF,DewpointF,PressureIn,WindDirection,WindDirectionDegrees,WindSpeedMPH,WindSpeedGustMPH,Humidity,HourlyPrecipIn,Conditions,Clouds,dailyrainin,SoftwareType,DateUTC
2013-07-25 00:02:00,65.3,49.3,30.00,NNW,338,3.0,6.0,56,0.00,,,0.00,meteohub,2013-07-25 04:02:00,
2013-07-25 00:07:00,64.9,49.3,30.00,NW,315,4.0,4.0,57,0.00,,,0.00,meteohub,2013-07-25 04:07:00,
2013-07-25 00:12:00,64.8,49.1,30.00,NNW,338,3.0,4.0,57,0.00,,,0.00,meteohub,2013-07-25 04:12:00,
2013-07-25 00:17:00,64.8,49.6,30.00,NNW,338,3.0,4.0,58,0.00,,,0.00,meteohub,2013-07-25 04:17:00,
2013-07-25 00:22:00,64.4,49.8,30.00,NNW,338,4.0,4.0,59,0.00,,,0.00,meteohub,2013-07-25 04:22:00,
2013-07-25 00:27:00,64.2,49.6,30.00,NNW,338,2.0,4.0,59,0.00,,,0.00,meteohub,2013-07-25 04:27:00,
2013-07-25 00:37:00,64.0,49.5,30.00,NNW,338,3.0,4.0,59,0.00,,,0.00,meteohub,2013-07-25 04:37:00,
2013-07-25 00:42:00,63.9,49.6,30.03,NNW,338,2.0,4.0,60,0.00,,,0.00,meteohub,2013-07-25 04:42:00,
2013-07-25 00:47:00,63.7,49.6,30.03,NNW,338,2.0,4.0,60,0.00,,,0.00,meteohub,2013-07-25 04:47:00,
2013-07-25 00:52:00,63.7,50.0,30.03,NNW,338,4.0,4.0,61,0.00,,,0.00,meteohub,2013-07-25 04:52:00,
2013-07-25 00:57:00,63.5,49.8,30.03,NNW,338,5.0,5.0,61,0.00,,,0.00,meteohub,2013-07-25 04:57:00,
2013-07-25 01:07:00,63.0,47.5,30.03,North,0,4.0,6.0,57,0.00,,,0.00,meteohub,2013-07-25 05:07:00,
2013-07-25 01:12:00,62.6,47.1,30.03,NW,315,3.0,6.0,57,0.00,,,0.00,meteohub,2013-07-25 05:12:00,
2013-07-25 01:17:00,62.4,46.9,30.03,NNW,338,3.0,6.0,57,0.00,,,0.00,meteohub,2013-07-25 05:17:00,
2013-07-25 01:22:00,62.2,46.8,30.03,NNW,338,4.0,5.0,57,0.00,,,0.00,meteohub,2013-07-25 05:22:00,
2013-07-25 01:27:00,61.9,46.6,30.03,NW,315,4.0,6.0,57,0.00,,,0.00,meteohub,2013-07-25 05:27:00,
2013-07-25 01:32:00,61.7,46.8,30.03,NNW,338,5.0,6.0,58,0.00,,,0.00,meteohub,2013-07-25 05:32:00,
2013-07-25 01:37:00,61.3,46.4,30.03,NNW,338,3.0,6.0,58,0.00,,,0.00,meteohub,2013-07-25 05:37:00,
2013-07-25 01:42:00,61.2,46.2,30.03,NNW,338,3.0,6.0,58,0.00,,,0.00,meteohub,2013-07-25 05:42:00,
2013-07-25 01:52:00,61.0,46.0,30.03,NW,315,4.0,8.0,58,0.00,,,0.00,meteohub,2013-07-25 05:52:00,
2013-07-25 01:57:00,60.8,45.5,30.03,NW,315,4.0,8.0,57,0.00,,,0.00,meteohub,2013-07-25 05:57:00,
2013-07-25 02:07:00,60.4,44.2,30.03,NNW,338,4.0,5.0,55,0.00,,,0.00,meteohub,2013-07-25 06:07:00,
2013-07-25 02:12:00,60.3,44.1,30.03,NNW,338,2.0,5.0,55,0.00,,,0.00,meteohub,2013-07-25 06:12:00,
2013-07-25 02:22:00,60.1,44.8,30.03,NNW,338,2.0,4.0,57,0.00,,,0.00,meteohub,2013-07-25 06:22:00,
2013-07-25 02:27:00,60.1,44.4,30.03,NNW,338,3.0,4.0,56,0.00,,,0.00,meteohub,2013-07-25 06:27:00,
2013-07-25 02:32:00,59.9,44.2,30.03,NW,315,4.0,4.0,56,0.00,,,0.00,meteohub,2013-07-25 06:32:00,
2013-07-25 02:37:00,59.9,44.6,30.03,NW,315,1.0,4.0,57,0.00,,,0.00,meteohub,2013-07-25 06:37:00,
2013-07-25 02:42:00,59.7,44.4,30.03,NNW,338,2.0,4.0,57,0.00,,,0.00,meteohub,2013-07-25 06:42:00,
2013-07-25 02:47:00,59.7,44.1,30.03,NNW,338,2.0,4.0,56,0.00,,,0.00,meteohub,2013-07-25 06:47:00,
2013-07-25 02:52:00,59.5,43.3,30.03,NNW,338,2.0,3.0,55,0.00,,,0.00,meteohub,2013-07-25 06:52:00,
2013-07-25 02:57:00,59.5,43.9,30.03,NW,315,3.0,4.0,56,0.00,,,0.00,meteohub,2013-07-25 06:57:00,
2013-07-25 03:02:00,59.4,43.2,30.03,NW,315,3.0,4.0,55,0.00,,,0.00,meteohub,2013-07-25 07:02:00,
2013-07-25 03:12:00,59.4,43.2,30.06,NNW,338,3.0,4.0,55,0.00,,,0.00,meteohub,2013-07-25 07:12:00,
2013-07-25 03:17:00,59.4,43.7,30.06,NNW,338,2.0,4.0,56,0.00,,,0.00,meteohub,2013-07-25 07:17:00,
2013-07-25 03:22:00,59.4,43.2,30.06,North,0,1.0,3.0,55,0.00,,,0.00,meteohub,2013-07-25 07:22:00,
2013-07-25 03:27:00,59.2,43.0,30.06,NNW,338,3.0,3.0,55,0.00,,,0.00,meteohub,2013-07-25 07:27:00,
2013-07-25 03:37:00,59.2,43.5,30.06,NNW,338,3.0,4.0,56,0.00,,,0.00,meteohub,2013-07-25 07:37:00,
2013-07-25 03:42:00,59.0,42.8,30.06,NNW,338,2.0,4.0,55,0.00,,,0.00,meteohub,2013-07-25 07:42:00,
2013-07-25 03:47:00,59.0,43.3,30.06,NNW,338,2.0,4.0,56,0.00,,,0.00,meteohub,2013-07-25 07:47:00,
2013-07-25 03:52:00,59.0,43.9,30.06,North,0,1.0,3.0,57,0.00,,,0.00,meteohub,2013-07-25 07:52:00,
2013-07-25 03:57:00,59.0,43.9,30.06,NW,315,2.0,3.0,57,0.00,,,0.00,meteohub,2013-07-25 07:57:00,
2013-07-25 04:02:00,59.0,43.9,30.06,NW,315,1.0,3.0,57,0.00,,,0.00,meteohub,2013-07-25 08:02:00,
2013-07-25 04:07:00,58.8,44.1,30.06,NW,315,3.0,3.0,58,0.00,,,0.00,meteohub,2013-07-25 08:07:00,
2013-07-25 04:12:00,58.8,44.1,30.09,NNW,338,2.0,3.0,58,0.00,,,0.00,meteohub,2013-07-25 08:12:00,
2013-07-25 04:17:00,58.8,43.7,30.09,North,0,2.0,3.0,57,0.00,,,0.00,meteohub,2013-07-25 08:17:00,
2013-07-25 04:22:00,58.8,44.1,30.09,NW,315,3.0,3.0,58,0.00,,,0.00,meteohub,2013-07-25 08:22:00,
2013-07-25 04:27:00,58.8,44.1,30.06,NNW,338,1.0,3.0,58,0.00,,,0.00,meteohub,2013-07-25 08:27:00,
2013-07-25 04:37:00,58.8,44.1,30.06,NW,315,1.0,3.0,58,0.00,,,0.00,meteohub,2013-07-25 08:37:00,
2013-07-25 04:42:00,58.8,44.6,30.03,NW,315,0.0,3.0,59,0.00,,,0.00,meteohub,2013-07-25 08:42:00,
2013-07-25 04:47:00,58.8,44.6,30.03,NNW,338,2.0,2.0,59,0.00,,,0.00,meteohub,2013-07-25 08:47:00,
2013-07-25 04:52:00,58.8,44.6,30.03,NW,315,0.0,2.0,59,0.00,,,0.00,meteohub,2013-07-25 08:52:00,
2013-07-25 04:57:00,58.8,44.6,30.06,NNW,338,0.0,2.0,59,0.00,,,0.00,meteohub,2013-07-25 08:57:00,
2013-07-25 05:07:00,58.6,44.4,30.06,North,0,0.0,3.0,59,0.00,,,0.00,meteohub,2013-07-25 09:07:00,
2013-07-25 05:12:00,58.6,44.8,30.06,NW,315,2.0,3.0,60,0.00,,,0.00,meteohub,2013-07-25 09:12:00,
2013-07-25 05:22:00,58.6,45.3,30.06,NW,315,2.0,2.0,61,0.00,,,0.00,meteohub,2013-07-25 09:22:00,
2013-07-25 05:27:00,58.6,45.3,30.06,NW,315,0.0,3.0,61,0.00,,,0.00,meteohub,2013-07-25 09:27:00,
2013-07-25 05:32:00,58.6,45.3,30.06,NNW,338,1.0,3.0,61,0.00,,,0.00,meteohub,2013-07-25 09:32:00,
2013-07-25 05:37:00,58.6,45.7,30.06,NNW,338,2.0,3.0,62,0.00,,,0.00,meteohub,2013-07-25 09:37:00,
2013-07-25 05:47:00,58.5,45.1,30.06,NW,315,1.0,2.0,61,0.00,,,0.00,meteohub,2013-07-25 09:47:00,
2013-07-25 05:57:00,58.5,45.1,30.09,NNW,338,2.0,2.0,61,0.00,,,0.00,meteohub,2013-07-25 09:57:00,
2013-07-25 06:02:00,58.5,45.5,30.09,NNW,338,0.0,3.0,62,0.00,,,0.00,meteohub,2013-07-25 10:02:00,
2013-07-25 06:07:00,58.5,45.5,30.09,NNW,338,0.0,3.0,62,0.00,,,0.00,meteohub,2013-07-25 10:07:00,
2013-07-25 06:12:00,58.5,45.9,30.09,NNW,338,1.0,3.0,63,0.00,,,0.00,meteohub,2013-07-25 10:12:00,
2013-07-25 06:17:00,58.5,45.9,30.09,North,0,2.0,2.0,63,0.00,,,0.00,meteohub,2013-07-25 10:17:00,
2013-07-25 06:22:00,58.5,45.9,30.09,NNW,338,2.0,3.0,63,0.00,,,0.00,meteohub,2013-07-25 10:22:00,
2013-07-25 06:27:00,58.3,45.7,30.09,NW,315,4.0,4.0,63,0.00,,,0.00,meteohub,2013-07-25 10:27:00,
2013-07-25 06:32:00,58.5,46.4,30.09,NW,315,1.0,4.0,64,0.00,,,0.00,meteohub,2013-07-25 10:32:00,
2013-07-25 06:37:00,58.5,45.9,30.09,NNW,338,0.0,4.0,63,0.00,,,0.00,meteohub,2013-07-25 10:37:00,
2013-07-25 06:42:00,58.5,45.9,30.09,NNW,338,1.0,4.0,63,0.00,,,0.00,meteohub,2013-07-25 10:42:00,
2013-07-25 06:47:00,58.5,46.4,30.09,NNW,338,3.0,3.0,64,0.00,,,0.00,meteohub,2013-07-25 10:47:00,
2013-07-25 06:52:00,58.5,45.9,30.09,NNW,338,2.0,3.0,63,0.00,,,0.00,meteohub,2013-07-25 10:52:00,
2013-07-25 06:57:00,58.3,46.2,30.09,NNW,338,2.0,3.0,64,0.00,,,0.00,meteohub,2013-07-25 10:57:00,
2013-07-25 07:07:00,58.3,46.2,30.09,NW,315,0.0,3.0,64,0.00,,,0.00,meteohub,2013-07-25 11:07:00,
2013-07-25 07:12:00,58.3,46.2,30.09,NNW,338,0.0,2.0,64,0.00,,,0.00,meteohub,2013-07-25 11:12:00,
2013-07-25 07:17:00,58.3,46.2,30.09,NW,315,0.0,3.0,64,0.00,,,0.00,meteohub,2013-07-25 11:17:00,
2013-07-25 07:22:00,58.3,46.6,30.09,NNW,338,2.0,3.0,65,0.00,,,0.00,meteohub,2013-07-25 11:22:00,
2013-07-25 07:27:00,58.3,46.6,30.12,NNW,338,1.0,2.0,65,0.00,,,0.00,meteohub,2013-07-25 11:27:00,
2013-07-25 07:32:00,58.3,46.9,30.12,NNW,338,3.0,3.0,66,0.00,,,0.00,meteohub,2013-07-25 11:32:00,
2013-07-25 07:37:00,58.3,46.9,30.12,NW,315,1.0,3.0,66,0.00,,,0.00,meteohub,2013-07-25 11:37:00,
2013-07-25 07:47:00,58.5,47.1,30.12,NW,315,3.0,3.0,66,0.00,,,0.00,meteohub,2013-07-25 11:47:00,
2013-07-25 07:52:00,58.5,47.5,30.12,NW,315,2.0,3.0,67,0.00,,,0.00,meteohub,2013-07-25 11:52:00,
2013-07-25 07:57:00,58.5,47.1,30.12,NNW,338,0.0,3.0,66,0.00,,,0.00,meteohub,2013-07-25 11:57:00,
2013-07-25 08:02:00,58.5,47.5,30.12,NNW,338,0.0,3.0,67,0.00,,,0.00,meteohub,2013-07-25 12:02:00,
2013-07-25 08:07:00,58.6,48.2,30.12,NW,315,1.0,3.0,68,0.00,,,0.00,meteohub,2013-07-25 12:07:00,
2013-07-25 08:12:00,58.6,47.7,30.12,NNW,338,0.0,3.0,67,0.00,,,0.00,meteohub,2013-07-25 12:12:00,
2013-07-25 08:17:00,58.6,48.2,30.12,North,0,2.0,3.0,68,0.00,,,0.00,meteohub,2013-07-25 12:17:00,
2013-07-25 08:22:00,58.6,48.2,30.12,NNW,338,0.0,3.0,68,0.00,,,0.00,meteohub,2013-07-25 12:22:00,
2013-07-25 08:27:00,58.6,48.2,30.12,NW,315,0.0,2.0,68,0.00,,,0.00,meteohub,2013-07-25 12:27:00,
2013-07-25 08:37:00,58.8,48.7,30.12,NNW,338,0.0,2.0,69,0.00,,,0.00,meteohub,2013-07-25 12:37:00,
2013-07-25 08:42:00,58.8,48.7,30.12,NW,315,0.0,2.0,69,0.00,,,0.00,meteohub,2013-07-25 12:42:00,
2013-07-25 08:52:00,58.8,48.7,30.12,NW,315,0.0,2.0,69,0.00,,,0.00,meteohub,2013-07-25 12:52:00,
2013-07-25 09:02:00,58.8,49.1,30.12,NNW,338,1.0,2.0,70,0.00,,,0.00,meteohub,2013-07-25 13:02:00,
2013-07-25 09:12:00,58.8,49.1,30.12,NW,315,2.0,2.0,70,0.00,,,0.00,meteohub,2013-07-25 13:12:00,
2013-07-25 09:17:00,58.8,49.1,30.12,NW,315,0.0,2.0,70,0.00,,,0.00,meteohub,2013-07-25 13:17:00,
2013-07-25 09:22:00,58.8,49.1,30.12,NNW,338,0.0,2.0,70,0.00,,,0.00,meteohub,2013-07-25 13:22:00,
2013-07-25 09:27:00,59.0,49.3,30.12,NNW,338,0.0,2.0,70,0.00,,,0.00,meteohub,2013-07-25 13:27:00,
2013-07-25 09:32:00,59.2,49.8,30.12,North,0,0.0,3.0,71,0.00,,,0.00,meteohub,2013-07-25 13:32:00,
2013-07-25 09:42:00,59.4,50.0,30.14,NNW,338,3.0,4.0,71,0.00,,,0.00,meteohub,2013-07-25 13:42:00,
2013-07-25 09:52:00,59.5,50.2,30.14,NNW,338,2.0,3.0,71,0.00,,,0.00,meteohub,2013-07-25 13:52:00,
2013-07-25 09:57:00,59.5,50.2,30.14,NW,315,1.0,3.0,71,0.00,,,0.00,meteohub,2013-07-25 13:57:00,
2013-07-25 10:07:00,59.5,50.2,30.14,SSE,158,0.0,2.0,71,0.00,,,0.00,meteohub,2013-07-25 14:07:00,
2013-07-25 10:12:00,59.7,50.4,30.14,NW,315,2.0,3.0,71,0.00,,,0.00,meteohub,2013-07-25 14:12:00,
2013-07-25 10:22:00,59.9,50.5,30.14,NNW,338,0.0,3.0,71,0.00,,,0.00,meteohub,2013-07-25 14:22:00,
2013-07-25 10:32:00,60.3,51.3,30.14,NW,315,3.0,3.0,72,0.00,,,0.00,meteohub,2013-07-25 14:32:00,
2013-07-25 10:37:00,60.3,50.9,30.14,North,0,2.0,3.0,71,0.00,,,0.00,meteohub,2013-07-25 14:37:00,
2013-07-25 10:42:00,60.3,50.9,30.14,NW,315,3.0,3.0,71,0.00,,,0.00,meteohub,2013-07-25 14:42:00,
2013-07-25 10:47:00,60.3,50.9,30.14,NW,315,2.0,3.0,71,0.00,,,0.00,meteohub,2013-07-25 14:47:00,
2013-07-25 10:52:00,60.1,50.7,30.14,NNW,338,0.0,3.0,71,0.00,,,0.00,meteohub,2013-07-25 14:52:00,
2013-07-25 10:57:00,60.1,50.7,30.14,NNW,338,2.0,4.0,71,0.00,,,0.00,meteohub,2013-07-25 14:57:00,
2013-07-25 11:07:00,60.4,51.1,30.14,NNW,338,2.0,4.0,71,0.00,,,0.00,meteohub,2013-07-25 15:07:00,
2013-07-25 11:12:00,60.4,51.1,30.14,NW,315,2.0,4.0,71,0.00,,,0.00,meteohub,2013-07-25 15:12:00,
2013-07-25 11:17:00,60.4,51.1,30.14,NNW,338,0.0,4.0,71,0.00,,,0.00,meteohub,2013-07-25 15:17:00,
2013-07-25 11:22:00,60.6,51.3,30.14,NW,315,0.0,4.0,71,0.00,,,0.00,meteohub,2013-07-25 15:22:00,
2013-07-25 11:32:00,60.6,51.3,30.17,NW,315,0.0,3.0,71,0.00,,,0.00,meteohub,2013-07-25 15:32:00,
2013-07-25 11:37:00,60.4,51.1,30.17,NW,315,1.0,4.0,71,0.00,,,0.00,meteohub,2013-07-25 15:37:00,
2013-07-25 11:42:00,60.4,51.4,30.17,NW,315,0.0,4.0,72,0.00,,,0.00,meteohub,2013-07-25 15:42:00,
2013-07-25 11:47:00,60.4,51.4,30.17,NNW,338,3.0,4.0,72,0.00,,,0.00,meteohub,2013-07-25 15:47:00,
2013-07-25 11:52:00,60.3,51.3,30.17,NNW,338,2.0,4.0,72,0.00,,,0.00,meteohub,2013-07-25 15:52:00,
2013-07-25 11:57:00,60.3,51.3,30.17,NNW,338,0.0,4.0,72,0.00,,,0.00,meteohub,2013-07-25 15:57:00,
2013-07-25 12:02:00,60.3,51.6,30.17,NNW,338,3.0,4.0,73,0.00,,,0.00,meteohub,2013-07-25 16:02:00,
2013-07-25 12:07:00,60.1,51.4,30.17,NNW,338,0.0,3.0,73,0.00,,,0.00,meteohub,2013-07-25 16:07:00,
2013-07-25 12:12:00,60.3,51.6,30.17,NW,315,0.0,3.0,73,0.00,,,0.00,meteohub,2013-07-25 16:12:00,
2013-07-25 12:22:00,60.4,52.2,30.17,North,0,0.0,4.0,74,0.00,,,0.00,meteohub,2013-07-25 16:22:00,
2013-07-25 12:27:00,60.3,51.6,30.17,NNW,338,2.0,4.0,73,0.00,,,0.00,meteohub,2013-07-25 16:27:00,
2013-07-25 12:37:00,60.1,51.8,30.17,NNW,338,2.0,4.0,74,0.00,,,0.00,meteohub,2013-07-25 16:37:00,
2013-07-25 12:47:00,59.9,52.0,30.17,NNW,338,0.0,4.0,75,0.00,,,0.00,meteohub,2013-07-25 16:47:00,
2013-07-25 12:57:00,59.9,52.7,30.17,NNW,338,1.0,3.0,77,0.00,,,0.00,meteohub,2013-07-25 16:57:00,
2013-07-25 13:02:00,59.9,52.7,30.17,NNE,22,0.0,3.0,77,0.00,,,0.00,meteohub,2013-07-25 17:02:00,
2013-07-25 13:12:00,59.9,53.1,30.17,North,0,0.0,2.0,78,0.00,,,0.00,meteohub,2013-07-25 17:12:00,
2013-07-25 13:17:00,59.9,53.1,30.17,North,0,0.0,3.0,78,0.00,,,0.00,meteohub,2013-07-25 17:17:00,
2013-07-25 13:27:00,60.1,53.2,30.17,WNW,292,0.0,4.0,78,0.00,,,0.00,meteohub,2013-07-25 17:27:00,
2013-07-25 13:32:00,60.1,53.2,30.17,NNW,338,0.0,4.0,78,0.00,,,0.00,meteohub,2013-07-25 17:32:00,
2013-07-25 13:37:00,60.1,53.6,30.17,NNW,338,0.0,3.0,79,0.00,,,0.00,meteohub,2013-07-25 17:37:00,
2013-07-25 13:47:00,60.3,53.8,30.14,NNW,338,0.0,2.0,79,0.00,,,0.00,meteohub,2013-07-25 17:47:00,
2013-07-25 13:52:00,60.4,54.0,30.14,NNW,338,0.0,2.0,79,0.00,,,0.00,meteohub,2013-07-25 17:52:00,
2013-07-25 14:02:00,60.1,54.3,30.14,NW,315,0.0,2.0,81,0.00,,,0.00,meteohub,2013-07-25 18:02:00,
2013-07-25 14:12:00,59.7,54.1,30.14,NW,315,0.0,2.0,82,0.00,,,0.00,meteohub,2013-07-25 18:12:00,
2013-07-25 14:22:00,59.4,54.9,30.14,NW,315,0.0,0.0,85,0.00,,,0.00,meteohub,2013-07-25 18:22:00,
2013-07-25 14:27:00,59.2,55.0,30.14,NW,315,0.0,0.0,86,0.00,,,0.00,meteohub,2013-07-25 18:27:00,
2013-07-25 14:32:00,59.0,55.2,30.14,NW,315,0.0,0.0,87,0.00,,,0.00,meteohub,2013-07-25 18:32:00,
2013-07-25 14:37:00,59.2,55.9,30.14,NNW,338,0.0,1.0,89,0.00,,,0.00,meteohub,2013-07-25 18:37:00,
2013-07-25 14:47:00,59.0,56.1,30.14,NW,315,0.0,2.0,90,0.00,,,0.00,meteohub,2013-07-25 18:47:00,
2013-07-25 14:57:00,58.8,56.5,30.14,NNW,338,0.0,2.0,92,0.00,,,0.00,meteohub,2013-07-25 18:57:00,
2013-07-25 15:02:00,58.8,56.8,30.14,NNW,338,0.0,0.0,93,0.00,,,0.00,meteohub,2013-07-25 19:02:00,
2013-07-25 15:07:00,59.0,56.7,30.14,NNW,338,0.0,0.0,92,0.00,,,0.00,meteohub,2013-07-25 19:07:00,
2013-07-25 15:12:00,59.2,57.2,30.14,NNW,338,0.0,1.0,93,0.00,,,0.00,meteohub,2013-07-25 19:12:00,
2013-07-25 15:17:00,59.2,57.2,30.14,NNW,338,0.0,1.0,93,0.00,,,0.00,meteohub,2013-07-25 19:17:00,
2013-07-25 15:22:00,59.2,57.4,30.14,North,0,0.0,0.0,94,0.00,,,0.00,meteohub,2013-07-25 19:22:00,
2013-07-25 15:27:00,59.2,57.4,30.14,NW,315,0.0,2.0,94,0.00,,,0.00,meteohub,2013-07-25 19:27:00,
2013-07-25 15:37:00,59.2,56.8,30.14,NNW,338,0.0,2.0,92,0.00,,,0.00,meteohub,2013-07-25 19:37:00,
2013-07-25 15:42:00,59.2,57.2,30.14,NNW,338,0.0,0.0,93,0.00,,,0.00,meteohub,2013-07-25 19:42:00,
2013-07-25 15:47:00,59.0,57.0,30.14,NNW,338,0.0,0.0,93,0.00,,,0.00,meteohub,2013-07-25 19:47:00,
2013-07-25 15:52:00,59.2,57.2,30.14,NNW,338,0.0,0.0,93,0.00,,,0.00,meteohub,2013-07-25 19:52:00,
2013-07-25 15:57:00,59.2,57.2,30.17,NE,45,0.0,0.0,93,0.00,,,0.00,meteohub,2013-07-25 19:57:00,
2013-07-25 16:02:00,59.2,56.8,30.17,NNW,338,1.0,3.0,92,0.00,,,0.00,meteohub,2013-07-25 20:02:00,
2013-07-25 16:07:00,59.2,56.8,30.17,NNW,338,0.0,3.0,92,0.00,,,0.00,meteohub,2013-07-25 20:07:00,
2013-07-25 16:17:00,59.0,57.0,30.14,NNW,338,0.0,1.0,93,0.04,,,0.04,meteohub,2013-07-25 20:17:00,
2013-07-25 16:22:00,58.8,56.8,30.14,NNW,338,0.0,1.0,93,0.04,,,0.04,meteohub,2013-07-25 20:22:00,
2013-07-25 16:27:00,58.8,57.0,30.14,NW,315,0.0,1.0,94,0.04,,,0.04,meteohub,2013-07-25 20:27:00,
2013-07-25 16:32:00,58.8,57.0,30.14,NNW,338,0.0,1.0,94,0.04,,,0.04,meteohub,2013-07-25 20:32:00,
2013-07-25 16:42:00,58.8,57.0,30.14,NNW,338,0.0,0.0,94,0.04,,,0.04,meteohub,2013-07-25 20:42:00,
2013-07-25 16:47:00,58.8,57.4,30.14,NNW,338,0.0,1.0,95,0.04,,,0.04,meteohub,2013-07-25 20:47:00,
2013-07-25 16:52:00,58.8,57.4,30.14,NNW,338,0.0,1.0,95,0.04,,,0.04,meteohub,2013-07-25 20:52:00,
2013-07-25 16:57:00,58.8,57.4,30.14,NNW,338,0.0,0.0,95,0.08,,,0.08,meteohub,2013-07-25 20:57:00,
2013-07-25 17:07:00,59.0,57.6,30.14,NNW,338,0.0,0.0,95,0.08,,,0.08,meteohub,2013-07-25 21:07:00,
2013-07-25 17:12:00,59.0,57.6,30.14,North,0,0.0,0.0,95,0.04,,,0.08,meteohub,2013-07-25 21:12:00,
2013-07-25 17:17:00,59.0,57.6,30.14,NNW,338,0.0,0.0,95,0.04,,,0.08,meteohub,2013-07-25 21:17:00,
2013-07-25 17:27:00,59.0,57.9,30.14,NNW,338,0.0,0.0,96,0.04,,,0.08,meteohub,2013-07-25 21:27:00,
2013-07-25 17:32:00,59.2,58.1,30.14,NW,315,0.0,0.0,96,0.04,,,0.08,meteohub,2013-07-25 21:32:00,
2013-07-25 17:37:00,59.2,58.1,30.14,South,180,0.0,0.0,96,0.04,,,0.08,meteohub,2013-07-25 21:37:00,
2013-07-25 17:42:00,59.2,58.1,30.14,ENE,68,0.0,0.0,96,0.04,,,0.08,meteohub,2013-07-25 21:42:00,
2013-07-25 17:47:00,59.2,58.1,30.14,NNW,338,0.0,0.0,96,0.04,,,0.08,meteohub,2013-07-25 21:47:00,
2013-07-25 17:52:00,59.2,58.1,30.14,SE,135,4.0,0.0,96,0.00,,,0.08,meteohub,2013-07-25 21:52:00,
2013-07-25 17:57:00,59.2,58.1,30.17,WSW,248,0.0,4.0,96,0.00,,,0.08,meteohub,2013-07-25 21:57:00,
2013-07-25 18:02:00,59.2,58.1,30.17,NNW,338,0.0,4.0,96,0.00,,,0.08,meteohub,2013-07-25 22:02:00,
2013-07-25 18:12:00,59.0,57.9,30.14,NW,315,0.0,1.0,96,0.00,,,0.08,meteohub,2013-07-25 22:12:00,
2013-07-25 18:17:00,59.2,58.3,30.14,NNW,338,0.0,1.0,97,0.00,,,0.08,meteohub,2013-07-25 22:17:00,
2013-07-25 18:22:00,59.0,57.9,30.14,NW,315,0.0,1.0,96,0.00,,,0.08,meteohub,2013-07-25 22:22:00,
2013-07-25 18:27:00,59.0,58.1,30.17,NNW,338,0.0,0.0,97,0.00,,,0.08,meteohub,2013-07-25 22:27:00,
2013-07-25 18:32:00,59.0,58.1,30.17,NW,315,0.0,0.0,97,0.00,,,0.08,meteohub,2013-07-25 22:32:00,
2013-07-25 18:42:00,59.2,58.3,30.14,WSW,248,0.0,2.0,97,0.00,,,0.08,meteohub,2013-07-25 22:42:00,
2013-07-25 18:47:00,59.2,58.6,30.14,NNW,338,0.0,2.0,98,0.00,,,0.08,meteohub,2013-07-25 22:47:00,
2013-07-25 18:52:00,59.2,58.3,30.14,NNW,338,0.0,2.0,97,0.00,,,0.08,meteohub,2013-07-25 22:52:00,
2013-07-25 18:57:00,59.0,58.1,30.17,NNW,338,1.0,2.0,97,0.00,,,0.08,meteohub,2013-07-25 22:57:00,
2013-07-25 19:07:00,59.0,58.1,30.17,NW,315,0.0,2.0,97,0.00,,,0.08,meteohub,2013-07-25 23:07:00,
2013-07-25 19:12:00,59.0,58.1,30.17,NW,315,0.0,2.0,97,0.04,,,0.12,meteohub,2013-07-25 23:12:00,
2013-07-25 19:22:00,58.8,58.3,30.17,NNW,338,0.0,3.0,98,0.04,,,0.12,meteohub,2013-07-25 23:22:00,
2013-07-25 19:27:00,58.8,58.3,30.17,NW,315,0.0,3.0,98,0.04,,,0.12,meteohub,2013-07-25 23:27:00,
2013-07-25 19:32:00,58.8,58.3,30.17,NNW,338,0.0,3.0,98,0.04,,,0.12,meteohub,2013-07-25 23:32:00,
2013-07-25 19:37:00,58.6,58.1,30.17,NW,315,0.0,1.0,98,0.04,,,0.12,meteohub,2013-07-25 23:37:00,
2013-07-25 19:42:00,58.6,58.1,30.17,NW,315,0.0,1.0,98,0.04,,,0.12,meteohub,2013-07-25 23:42:00,
2013-07-25 19:52:00,58.6,58.1,30.17,NNW,338,0.0,0.0,98,0.04,,,0.12,meteohub,2013-07-25 23:52:00,
2013-07-25 19:57:00,58.6,58.1,30.17,WNW,292,0.0,0.0,98,0.04,,,0.12,meteohub,2013-07-25 23:57:00,
2013-07-25 20:02:00,58.5,57.9,30.17,NW,315,0.0,0.0,98,0.04,,,0.12,meteohub,2013-07-26 00:02:00,
2013-07-25 20:12:00,58.5,57.9,30.17,NW,315,0.0,0.0,98,0.00,,,0.00,meteohub,2013-07-26 00:12:00,
2013-07-25 20:17:00,58.5,57.9,30.17,NW,315,0.0,0.0,98,0.00,,,0.00,meteohub,2013-07-26 00:17:00,
2013-07-25 20:22:00,58.5,57.9,30.17,NW,315,0.0,0.0,98,0.00,,,0.00,meteohub,2013-07-26 00:22:00,
2013-07-25 20:27:00,58.5,57.9,30.17,NW,315,0.0,0.0,98,0.00,,,0.00,meteohub,2013-07-26 00:27:00,
2013-07-25 20:37:00,58.5,57.9,30.17,NNW,338,0.0,0.0,98,0.00,,,0.00,meteohub,2013-07-26 00:37:00,
2013-07-25 20:42:00,58.5,57.9,30.17,NNW,338,0.0,0.0,98,0.00,,,0.00,meteohub,2013-07-26 00:42:00,
2013-07-25 20:47:00,58.5,57.9,30.17,NNW,338,0.0,0.0,98,0.00,,,0.00,meteohub,2013-07-26 00:47:00,
2013-07-25 20:57:00,58.5,57.9,30.14,NNW,338,0.0,0.0,98,0.00,,,0.00,meteohub,2013-07-26 00:57:00,
2013-07-25 21:02:00,58.5,57.9,30.14,NNW,338,0.0,0.0,98,0.00,,,0.00,meteohub,2013-07-26 01:02:00,
2013-07-25 21:07:00,58.5,57.9,30.14,NNW,338,0.0,0.0,98,0.00,,,0.00,meteohub,2013-07-26 01:07:00,
2013-07-25 21:12:00,58.5,57.9,30.17,NNW,338,0.0,0.0,98,0.00,,,0.00,meteohub,2013-07-26 01:12:00,
2013-07-25 21:17:00,58.5,57.9,30.17,NNW,338,0.0,0.0,98,0.00,,,0.00,meteohub,2013-07-26 01:17:00,
2013-07-25 21:27:00,58.5,57.9,30.17,NNW,338,0.0,0.0,98,0.00,,,0.00,meteohub,2013-07-26 01:27:00,
2013-07-25 21:32:00,58.5,57.9,30.17,NNW,338,0.0,0.0,98,0.00,,,0.00,meteohub,2013-07-26 01:32:00,
2013-07-25 21:37:00,58.5,57.9,30.17,NNW,338,0.0,0.0,98,0.00,,,0.00,meteohub,2013-07-26 01:37:00,
2013-07-25 21:42:00,58.5,57.9,30.17,NNW,338,0.0,0.0,98,0.00,,,0.00,meteohub,2013-07-26 01:42:00,
2013-07-25 21:52:00,58.6,58.1,30.17,NNW,338,0.0,0.0,98,0.00,,,0.00,meteohub,2013-07-26 01:52:00,
2013-07-25 21:57:00,58.6,58.1,30.17,NNW,338,0.0,0.0,98,0.00,,,0.00,meteohub,2013-07-26 01:57:00,
2013-07-25 22:02:00,58.6,58.1,30.17,NNW,338,0.0,0.0,98,0.00,,,0.00,meteohub,2013-07-26 02:02:00,
2013-07-25 22:12:00,58.6,58.1,30.17,NNW,338,0.0,0.0,98,0.00,,,0.00,meteohub,2013-07-26 02:12:00,
2013-07-25 22:17:00,58.6,58.1,30.17,NNW,338,0.0,0.0,98,0.00,,,0.00,meteohub,2013-07-26 02:17:00,
2013-07-25 22:22:00,58.6,58.1,30.17,NNW,338,0.0,0.0,98,0.00,,,0.00,meteohub,2013-07-26 02:22:00,
2013-07-25 22:27:00,58.8,58.3,30.17,NNW,338,0.0,0.0,98,0.00,,,0.00,meteohub,2013-07-26 02:27:00,
2013-07-25 22:32:00,58.8,58.3,30.17,NNW,338,0.0,0.0,98,0.00,,,0.00,meteohub,2013-07-26 02:32:00,
2013-07-25 22:37:00,58.8,58.3,30.17,NNW,338,0.0,0.0,98,0.00,,,0.00,meteohub,2013-07-26 02:37:00,
2013-07-25 22:47:00,58.8,58.3,30.14,NNW,338,0.0,0.0,98,0.00,,,0.00,meteohub,2013-07-26 02:47:00,
2013-07-25 22:52:00,58.8,58.3,30.14,NNW,338,0.0,0.0,98,0.00,,,0.00,meteohub,2013-07-26 02:52:00,
2013-07-25 22:57:00,58.8,58.3,30.14,NNW,338,0.0,0.0,98,0.00,,,0.00,meteohub,2013-07-26 02:57:00,
2013-07-25 23:02:00,59.0,58.5,30.14,NNW,338,0.0,0.0,98,0.00,,,0.00,meteohub,2013-07-26 03:02:00,
2013-07-25 23:07:00,59.0,58.5,30.14,NNW,338,0.0,0.0,98,0.00,,,0.00,meteohub,2013-07-26 03:07:00,
2013-07-25 23:17:00,59.0,58.5,30.14,NNW,338,0.0,0.0,98,0.00,,,0.00,meteohub,2013-07-26 03:17:00,
2013-07-25 23:22:00,59.0,58.5,30.14,NNW,338,0.0,0.0,98,0.00,,,0.00,meteohub,2013-07-26 03:22:00,
2013-07-25 23:27:00,59.0,58.5,30.14,NNW,338,0.0,0.0,98,0.00,,,0.00,meteohub,2013-07-26 03:27:00,
2013-07-25 23:32:00,59.0,58.5,30.14,NNW,338,0.0,0.0,98,0.00,,,0.00,meteohub,2013-07-26 03:32:00,
2013-07-25 23:37:00,59.0,58.5,30.14,NNW,338,0.0,0.0,98,0.00,,,0.00,meteohub,2013-07-26 03:37:00,
2013-07-25 23:42:00,59.0,58.5,30.14,NNW,338,0.0,0.0,98,0.00,,,0.00,meteohub,2013-07-26 03:42:00,
2013-07-25 23:47:00,59.0,58.5,30.14,NNW,338,0.0,0.0,98,0.00,,,0.00,meteohub,2013-07-26 03:47:00,
2013-07-25 23:52:00,59.0,58.5,30.14,NNW,338,0.0,0.0,98,0.00,,,0.00,meteohub,2013-07-26 03:52:00,